Weather History for Jackson, MN

Change the Weather History Date:

Monday, April 28, 2014

  Actual Average Record
Temperature  
Mean Temperature 46 °F -  
Max Temperature 50 °F 61 °F 86 °F (2004)
Min Temperature 41 °F 39 °F 28 °F (2005)
Degree Days  
Heating Degree Days 19    
Moisture  
Dew Point 43 °F    
Average Humidity 90    
Maximum Humidity 93    
Minimum Humidity 82    
Precipitation  
Precipitation 0.23 in - - ()
Sea Level Pressure  
Sea Level Pressure 29.46 in    
Wind  
Wind Speed 22 mph (East)    
Max Wind Speed 31 mph    
Max Gust Speed 37 mph    
Visibility 4 miles    
Events Rain , Thunderstorm    
Averages and records for this station are not official NWS values.
T = Trace of Precipitation, MM = Missing Value Source: NWS Daily Summary

Daily Weather History Graph

Daily Weather History Graph

Search for Another Location

Airport:

Trip Planner

Search our weather history database for the weather conditions in past years. The results will help you decide how hot, cold, wet, or windy it might be!

Date:

Astronomy

Apr. 28, 2014 Rise Set
Actual Time 6:16 AM CDT 8:18 PM CDT
Civil Twilight 5:45 AM CDT 8:50 PM CDT
Nautical Twilight 5:07 AM CDT 9:28 PM CDT
Astronomical Twilight 4:25 AM CDT 10:10 PM CDT
Moon 5:57 AM CDT (4/28) 7:57 PM CDT (4/28)
Length of Visible Light 15h 04m
Length of Day
14h 02m
Waning Crescent, 0% of the Moon is Illuminated
Apr 28
Waning Crescent
Apr 29
New
May 6
First Quarter
May 14
Full
May 21
Last Quarter

Hourly Weather History & Observations

Time (CDT) Temp. Windchill Dew Point Humidity Pressure Visibility Wind Dir Wind Speed Gust Speed Precip Events Conditions
12:12 AM 50.0 °F - 46.4 °F 87% 29.51 in 7.0 mi ESE 18.4 mph 27.6 mph N/A   Overcast
12:32 AM 50.0 °F - 46.4 °F 87% 29.50 in 7.0 mi ESE 23.0 mph 29.9 mph N/A Thunderstorm Overcast
1:12 AM 50.0 °F - 44.6 °F 82% 29.49 in 10.0 mi ESE 21.9 mph 35.7 mph N/A   Overcast
1:32 AM 50.0 °F - 44.6 °F 82% 29.47 in 10.0 mi ESE 26.5 mph 29.9 mph N/A   Overcast
1:52 AM 50.0 °F - 44.6 °F 82% 29.46 in 10.0 mi ESE 20.7 mph 28.8 mph N/A   Overcast
2:13 AM 50.0 °F - 44.6 °F 82% 29.46 in 10.0 mi ESE 18.4 mph 26.5 mph N/A   Overcast
2:32 AM 50.0 °F - 46.4 °F 87% 29.43 in 10.0 mi East 24.2 mph 31.1 mph N/A   Overcast
3:13 AM 48.2 °F - 44.6 °F 87% 29.44 in 10.0 mi ESE 24.2 mph 27.6 mph N/A   Overcast
3:32 AM 48.2 °F - 44.6 °F 87% 29.44 in 10.0 mi East 21.9 mph 26.5 mph N/A   Overcast
3:52 AM 48.2 °F - 44.6 °F 87% 29.45 in 10.0 mi East 23.0 mph 29.9 mph N/A   Overcast
4:13 AM 46.4 °F 37.0 °F 44.6 °F 93% 29.43 in 10.0 mi East 31.1 mph 36.8 mph N/A   Overcast
4:32 AM 46.4 °F 38.1 °F 42.8 °F 87% 29.44 in 7.0 mi East 24.2 mph 31.1 mph N/A   Overcast
4:52 AM 46.4 °F 38.5 °F 42.8 °F 87% 29.42 in 7.0 mi East 21.9 mph 28.8 mph N/A   Overcast
5:12 AM 46.4 °F 38.5 °F 42.8 °F 87% 29.42 in 5.0 mi East 21.9 mph 27.6 mph N/A   Overcast
5:32 AM 46.4 °F 38.1 °F 42.8 °F 87% 29.42 in 5.0 mi East 24.2 mph 32.2 mph N/A   Overcast
5:52 AM 46.4 °F 39.0 °F 42.8 °F 87% 29.42 in 5.0 mi East 19.6 mph 28.8 mph N/A   Overcast
6:12 AM 46.4 °F 38.5 °F 42.8 °F 87% 29.42 in 5.0 mi East 21.9 mph 27.6 mph N/A   Overcast
6:32 AM 44.6 °F 35.7 °F 42.8 °F 93% 29.43 in 5.0 mi East 24.2 mph 29.9 mph N/A Rain Light Rain
6:52 AM 44.6 °F 35.9 °F 42.8 °F 93% 29.43 in 1.5 mi East 23.0 mph 31.1 mph N/A   Overcast
7:12 AM 44.6 °F 35.9 °F 42.8 °F 93% 29.43 in 2.5 mi East 23.0 mph 31.1 mph N/A   Overcast
7:32 AM 44.6 °F 36.1 °F 42.8 °F 93% 29.44 in 2.5 mi East 21.9 mph 28.8 mph N/A   Overcast
7:52 AM 46.4 °F 39.0 °F 42.8 °F 87% 29.43 in 4.0 mi East 19.6 mph 29.9 mph N/A   Overcast
8:12 AM 44.6 °F 35.9 °F 42.8 °F 93% 29.44 in 1.0 mi East 23.0 mph 29.9 mph N/A Rain Light Rain
8:32 AM 44.6 °F 35.5 °F 42.8 °F 93% 29.43 in 2.0 mi East 25.3 mph 29.9 mph N/A   Overcast
8:52 AM 44.6 °F 36.1 °F 42.8 °F 93% 29.43 in 1.8 mi East 21.9 mph 32.2 mph N/A   Overcast
9:12 AM 44.6 °F 35.5 °F 42.8 °F 93% 29.42 in 2.5 mi East 25.3 mph 28.8 mph N/A   Overcast
9:52 AM 44.6 °F 36.1 °F 42.8 °F 93% 29.42 in 10.0 mi East 21.9 mph 27.6 mph N/A   Overcast
10:12 AM 44.6 °F 36.4 °F 42.8 °F 93% 29.42 in 5.0 mi East 20.7 mph 27.6 mph N/A Rain Light Rain
10:32 AM 44.6 °F 36.1 °F 41.0 °F 87% 29.43 in 2.5 mi East 21.9 mph 28.8 mph N/A Rain , Thunderstorm Light Thunderstorms and Rain
10:52 AM 44.6 °F 36.6 °F 41.0 °F 87% 29.43 in 3.0 mi East 19.6 mph 26.5 mph N/A Rain , Thunderstorm Light Thunderstorms and Rain
11:12 AM 44.6 °F 36.4 °F 41.0 °F 87% 29.44 in 2.0 mi East 20.7 mph 31.1 mph N/A Rain Light Rain
11:32 AM 44.6 °F 35.5 °F 41.0 °F 87% 29.43 in 1.2 mi East 25.3 mph 31.1 mph N/A Rain Light Rain
11:52 AM 44.6 °F 35.5 °F 41.0 °F 87% 29.44 in 1.5 mi East 25.3 mph 31.1 mph N/A   Overcast
12:12 PM 44.6 °F 36.1 °F 41.0 °F 87% 29.44 in 2.0 mi East 21.9 mph 29.9 mph N/A   Overcast
12:32 PM 44.6 °F 36.1 °F 42.8 °F 93% 29.44 in 2.5 mi East 21.9 mph - N/A   Overcast
12:52 PM 44.6 °F 35.7 °F 42.8 °F 93% 29.43 in 3.0 mi East 24.2 mph 31.1 mph N/A   Overcast
1:12 PM 44.6 °F 35.9 °F 42.8 °F 93% 29.43 in 1.8 mi East 23.0 mph 34.5 mph 0.01 in   Overcast
1:32 PM 44.6 °F 36.9 °F 42.8 °F 93% 29.44 in 1.5 mi East 18.4 mph 29.9 mph 0.01 in   Overcast
1:52 PM 44.6 °F 36.9 °F 42.8 °F 93% 29.43 in 1.5 mi East 18.4 mph 26.5 mph 0.01 in   Overcast
2:12 PM 44.6 °F 36.4 °F 42.8 °F 93% 29.44 in 1.8 mi East 20.7 mph 29.9 mph N/A   Overcast
2:52 PM 44.6 °F 35.3 °F 42.8 °F 93% 29.43 in 1.2 mi ENE 26.5 mph 32.2 mph N/A Rain Light Rain
3:12 PM 44.6 °F 35.3 °F 42.8 °F 93% 29.43 in 0.8 mi ENE 26.5 mph 34.5 mph 0.01 in Rain , Thunderstorm Rain
3:32 PM 44.6 °F 35.9 °F 41.0 °F 87% 29.43 in 1.2 mi East 23.0 mph 34.5 mph 0.02 in Rain Light Rain
4:12 PM 44.6 °F 36.1 °F 41.0 °F 87% 29.44 in 1.0 mi ENE 21.9 mph 28.8 mph 0.01 in Rain Heavy Rain
4:32 PM 44.6 °F 36.4 °F 42.8 °F 93% 29.47 in 4.0 mi East 20.7 mph 26.5 mph 0.01 in Rain , Thunderstorm Light Thunderstorms and Rain
4:52 PM 44.6 °F 36.1 °F 41.0 °F 87% 29.47 in 1.5 mi East 21.9 mph 25.3 mph 0.02 in Rain , Thunderstorm Light Thunderstorms and Rain
5:12 PM 44.6 °F 36.6 °F 42.8 °F 93% 29.47 in 1.0 mi East 19.6 mph 25.3 mph N/A Thunderstorm Unknown
5:32 PM 44.6 °F 36.6 °F 42.8 °F 93% 29.46 in 1.5 mi East 19.6 mph 28.8 mph 0.01 in Rain Light Rain
5:52 PM 44.6 °F 35.7 °F 42.8 °F 93% 29.45 in 1.5 mi ENE 24.2 mph 29.9 mph 0.01 in Rain Light Rain
6:13 PM 44.6 °F 35.5 °F 42.8 °F 93% 29.47 in 1.5 mi East 25.3 mph 31.1 mph N/A   Unknown
6:32 PM 44.6 °F 35.7 °F 42.8 °F 93% 29.47 in 1.8 mi East 24.2 mph 28.8 mph N/A Rain Light Rain
6:52 PM 44.6 °F 37.2 °F 42.8 °F 93% 29.49 in 1.2 mi East 17.3 mph 28.8 mph N/A   Overcast
7:13 PM 42.8 °F 33.3 °F 41.0 °F 93% 29.50 in 0.8 mi East 24.2 mph 27.6 mph 0.01 in Rain Light Rain
7:32 PM 42.8 °F 33.8 °F 41.0 °F 93% 29.51 in 0.8 mi East 21.9 mph 27.6 mph 0.03 in   Unknown
7:52 PM 42.8 °F 34.8 °F 41.0 °F 93% 29.52 in 1.0 mi East 17.3 mph 26.5 mph 0.05 in   Overcast
8:12 PM 42.8 °F 35.1 °F 41.0 °F 93% 29.52 in 3.0 mi ENE 16.1 mph 26.5 mph N/A Rain Light Rain
8:32 PM 42.8 °F 34.8 °F 41.0 °F 93% 29.53 in 2.0 mi ENE 17.3 mph 23.0 mph 0.01 in Rain Light Rain
8:52 PM 42.8 °F 34.5 °F 41.0 °F 93% 29.53 in 3.0 mi ENE 18.4 mph 23.0 mph 0.01 in Rain Light Rain
9:12 PM 42.8 °F 34.3 °F 41.0 °F 93% 29.54 in 4.0 mi ENE 19.6 mph - 0.06 in Rain Light Rain
9:32 PM 42.8 °F 34.3 °F 41.0 °F 93% 29.54 in 3.0 mi ENE 19.6 mph 25.3 mph 0.06 in   Overcast
9:52 PM 42.8 °F 34.3 °F 41.0 °F 93% 29.54 in 3.0 mi ENE 19.6 mph 25.3 mph 0.06 in   Unknown
10:12 PM 42.8 °F 33.8 °F 41.0 °F 93% 29.55 in 3.0 mi ENE 21.9 mph - 0.02 in Rain Light Rain
10:32 PM 42.8 °F 34.5 °F 41.0 °F 93% 29.54 in 2.5 mi ENE 18.4 mph 25.3 mph 0.03 in Rain Light Rain
10:52 PM 42.8 °F 34.5 °F 41.0 °F 93% 29.54 in 2.0 mi ENE 18.4 mph - 0.03 in Rain Light Rain
11:12 PM 42.8 °F 34.3 °F 41.0 °F 93% 29.54 in 2.0 mi ENE 19.6 mph - 0.01 in Rain Light Rain
11:32 PM 42.8 °F 34.5 °F 41.0 °F 93% 29.54 in 1.8 mi NE 18.4 mph 24.2 mph 0.02 in Rain Light Rain
11:52 PM 41.0 °F 31.6 °F 39.2 °F 93% 29.55 in 3.0 mi NE 20.7 mph - 0.02 in Rain Light Rain